SCP
0 0 0 0 0 0 0 0 0 0 0 0 1 1 1 1 1 1 1 1 1 2 2 2 2 3 3 3 3 3 3 2 2 2 2 2 2 2 2 2 1 1 1 1
0 0 0 0 0 0 0 0 0 0 0 1 1 1 1 1 1 1 1 1 1 2 2 2 2 2 3 3 3 3 3 2 2 2 2 2 2 2 2 2 1 1 1 1
0 0 0 0 0 0 0 0 0 0 0 1 1 1 1 1 1 1 1 1 1 2 2 2 2 2 3 3 3 3 3 2 2 2 2 2 2 2 2 2 2 1 1 1
0 0 0 0 0 0 0 0 0 0 1 1 1 1 1 1 1 1 1 1 1 2 2 2 2 2 3 3 3 3 2 2 2 2 2 2 2 2 2 2 2 2 1 1
0 0 0 0 0 0 0 0 0 1 1 1 1 1 1 1 1 1 1 2 2 2 2 2 2 2 2 2 2 2 2 2 2 2 2 2 2 2 2 2 2 2 2 2
0 0 0 0 0 0 0 0 0 1 1 1 1 1 1 1 2 2 2 2 2 2 2 2 2 2 2 2 2 2 2 2 2 2 2 2 1 1 2 2 2 1 1 2
0 0 0 0 0 0 0 1 1 1 1 1 1 1 2 2 2 3 3 2 2 2 2 3 3 3 3 3 2 2 2 2 2 2 2 2 1 1 1 1 1 1 1 1
0 0 0 0 0 0 1 1 1 1 1 1 2 2 2 2 2 2 2 2 2 2 2 3 3 3 3 3 3 2 2 2 2 2 1 1 1 1 1 1 1 1 1 1
0 0 0 0 1 1 1 1 1 1 1 2 2 2 2 2 2 2 2 2 2 2 2 2 2 2 2 2 2 2 2 2 2 1 1 1 1 1 1 1 1 1 1 1
0 0 1 1 1 1 1 1 1 1 1 1 1 2 2 2 2 2 2 2 2 2 2 2 2 2 2 2 2 2 2 2 1 1 1 1 1 0 0 0 0 1 1 1
1 1 1 1 1 1 1 1 1 1 1 1 1 1 2 2 2 2 2 2 2 2 2 2 2 2 2 2 2 2 1 1 1 1 0 0 0 0 0 0 0 0 0 0
0 1 1 1 1 1 1 1 0 1 1 1 1 1 2 2 2 2 2 2 2 2 2 2 2 2 2 1 1 1 1 1 0 0 0 0 0 0 0 0 0 0 0 0
0 0 0 1 1 0 0 0 0 0 1 1 1 1 1 1 2 2 2 2 2 2 2 1 1 1 1 1 1 1 1 0 0 0 0 0 0 0 0 0 0 0 0 0
0 0 0 0 0 0 0 0 0 0 0 1 1 1 1 1 1 2 2 2 2 2 1 1 1 1 1 1 1 1 0 0 0 0 0 0 0 0 0 0 0 0 0 0
0 0 0 0 0 0 0 0 0 0 0 1 1 1 1 1 1 1 1 1 2 1 1 1 1 1 1 1 1 0 0 0 0 0 0 0 0 0 0 0 0 0 0 0
0 0 0 0 0 0 0 0 0 0 0 1 1 1 1 1 1 1 1 1 1 1 1 1 1 1 1 1 0 0 0 0 0 0 0 0 0 0 0 0 0 0 0 0
0 0 0 0 0 0 0 0 0 0 0 1 1 1 1 1 1 1 1 1 1 1 1 1 1 1 1 1 0 0 0 0 0 0 0 0 0 0 0 0 0 0 0 0
0 0 0 0 0 0 0 0 0 0 1 1 1 1 1 1 1 1 1 1 1 1 1 1 1 1 1 0 0 0 0 0 0 0 0 0 0 0 0 0 0 0 0 0
0 0 0 0 0 0 0 0 0 0 1 1 1 1 1 1 1 1 1 1 1 1 1 1 1 1 0 0 0 0 0 0 0 0 0 0 0 0 0 0 0 0 0 0
0 0 0 0 0 0 0 0 0 0 1 1 1 1 1 1 1 1 1 1 0 0 0 0 0 0 0 0 0 0 0 0 0 0 0 0 0 0 0 0 0 0 0 0
0 0 0 0 0 0 0 0 0 1 1 0 0 0 0 0 0 0 0 0 0 0 0 0 0 0 0 0 0 0 0 0 0 0 0 0 0 0 0 0 0 0 0 0
0 0 0 0 0 0 0 0 0 0 0 0 0 0 0 0 0 0 0 0 0 0 0 0 0 0 0 0 0 0 0 0 0 0 0 0 0 0 0 0 0 0 0 0
0 0 0 0 0 0 0 0 0 0 0 0 0 0 0 0 0 0 0 0 0 0 0 0 0 0 0 0 0 0 0 0 0 0 0 0 0 0 0 0 0 0 0 0
0 0 0 0 0 0 0 0 0 0 0 0 0 0 0 0 0 0 0 0 0 0 0 0 0 0 0 0 0 0 0 0 0 0 0 0 0 0 0 0 0 0 0 0
0 0 0 0 0 0 0 0 0 0 0 0 0 0 0 0 0 0 0 0 0 0 0 0 0 0 0 0 0 0 0 0 0 0 0 0 0 0 0 0 0 0 0 0
0 0 0 0 0 0 0 0 0 0 0 0 0 0 0 0 0 0 0 0 0 0 0 0 0 0 0 0 0 0 0 0 0 0 0 0 0 0 0 0 0 0 0 0
0 0 0 0 0 0 0 0 0 0 0 0 0 0 0 0 0 0 0 0 0 0 0 0 0 0 0 0 0 0 0 0 0 0 0 0 0 0 0 0 0 0 0 0
Wind_Speed
17 18 16 15 15 15 15 15 14 10 8 7 6 6 6 6 6 6 5 5 5 5 5 4 4 4 5 5 5 6 5 5 5 5 5 5 5 5 4 4 4 3 3 3
17 18 18 18 18 17 15 14 14 13 10 7 4 4 4 5 6 5 5 5 5 5 5 4 5 4 5 5 5 5 6 5 5 5 4 4 5 5 4 4 3 3 3 3
15 16 17 20 19 18 15 14 14 13 7 4 4 3 4 5 4 4 4 4 4 3 3 4 4 4 5 5 5 5 5 4 4 4 4 4 5 4 4 4 4 3 3 3
12 14 19 15 13 13 13 11 8 5 5 5 3 4 4 4 4 4 4 4 4 3 2 3 4 4 4 5 4 4 4 4 3 4 4 3 3 3 3 3 3 3 4 3
11 15 17 15 12 11 11 9 6 5 5 4 4 4 4 4 4 4 4 4 3 1 2 2 3 4 4 5 5 5 5 4 4 4 3 3 4 3 3 3 3 4 3 3
12 14 15 10 7 7 9 9 3 3 2 3 4 5 4 5 5 5 5 3 2 2 2 3 4 4 4 4 4 4 3 3 3 3 3 3 3 3 2 2 3 3 2 2
15 15 11 6 6 6 9 4 1 1 2 2 1 1 5 6 5 5 5 4 3 2 2 3 3 3 3 3 3 2 2 2 3 3 3 3 2 2 2 2 2 2 1 1
13 14 11 3 5 4 3 4 4 4 4 4 5 6 6 5 5 5 4 4 3 3 3 3 3 3 3 2 2 2 2 2 2 2 1 2 2 1 2 2 2 2 2 2
7 5 1 3 3 2 2 3 3 3 3 3 3 4 4 3 4 4 4 3 3 4 3 3 3 3 3 2 2 2 2 2 2 2 1 2 2 1 1 2 2 2 2 2
5 3 2 2 2 2 2 3 3 2 2 2 2 2 3 3 3 3 3 4 3 3 3 3 3 3 2 2 2 2 2 2 2 2 2 2 1 1 1 1 1 1 1 1
7 5 4 3 3 3 3 3 2 2 1 2 1 2 2 2 3 3 3 3 3 3 3 3 3 3 3 3 2 2 2 2 2 2 2 2 1 0 1 1 1 0 1 1
7 5 4 4 4 4 5 5 3 1 2 1 0 1 1 2 2 3 4 3 3 3 3 3 3 3 3 3 3 2 2 2 1 1 2 2 2 1 3 2 3 2 1 1
5 5 5 5 5 5 4 4 3 2 1 1 1 2 2 2 2 3 3 3 2 2 3 4 4 3 3 3 3 2 1 1 1 1 2 2 2 2 2 1 2 1 1 1
4 3 5 6 5 4 4 3 2 2 1 0 1 2 2 2 3 3 2 2 2 3 4 4 4 3 2 3 2 1 1 2 1 1 1 1 2 2 2 2 1 1 1 3
6 5 6 5 4 4 4 3 3 2 2 2 3 3 3 3 3 2 2 2 3 3 4 4 4 3 2 2 2 1 0 1 0 0 1 1 2 2 2 2 2 2 2 1
5 5 5 4 4 4 4 4 3 3 2 3 4 4 3 4 3 3 2 2 3 3 4 4 4 3 2 2 1 1 1 1 1 1 1 1 1 1 1 1 1 1 2 2
5 4 4 4 4 4 4 3 3 3 2 3 4 5 4 4 4 4 3 3 3 3 4 4 3 3 2 2 1 0 1 1 0 1 0 0 1 0 0 0 1 1 2 2
3 4 3 4 4 3 2 2 2 1 2 3 4 4 5 5 4 4 3 3 3 4 3 3 3 3 2 2 1 0 1 1 0 1 1 1 1 1 1 1 1 1 1 3
2 2 2 3 3 3 3 3 3 3 4 4 4 4 4 4 4 4 4 4 4 4 3 3 3 3 2 2 1 1 2 1 1 1 0 1 0 1 1 1 2 1 1 1
1 1 1 2 2 3 3 3 4 5 5 5 4 4 4 3 3 3 3 3 3 3 4 4 4 2 2 2 1 2 1 1 1 1 0 0 1 1 1 2 2 2 1 1
1 2 2 3 3 3 3 3 4 4 5 5 5 5 4 3 3 3 3 3 3 3 4 4 3 2 1 1 3 2 1 1 1 1 0 1 0 1 1 1 1 2 2 1
2 3 4 4 4 4 3 3 3 3 3 4 4 4 4 4 3 3 3 3 4 3 3 3 3 1 1 2 2 1 1 1 0 0 1 0 0 1 1 1 1 1 1 1
2 4 4 4 4 3 3 3 3 3 3 3 3 3 3 3 2 3 3 3 4 4 2 2 3 2 1 1 1 1 0 0 0 0 0 0 0 1 1 1 1 1 1 1
3 3 3 4 4 4 3 2 2 3 3 3 3 4 3 3 2 2 3 5 5 4 2 4 4 2 1 2 1 1 0 1 1 1 1 1 1 1 1 1 2 2 1 2
3 3 3 3 3 3 3 3 2 2 3 3 3 3 3 3 3 3 3 5 6 4 3 4 5 4 2 2 1 1 1 1 1 2 1 1 2 2 2 2 2 2 2 2
2 2 2 2 2 2 2 2 2 2 3 3 3 3 2 3 4 3 3 4 5 3 2 2 3 3 2 2 1 0 1 1 1 2 2 3 3 3 3 3 3 3 3 3
2 2 2 2 2 2 2 3 2 3 3 3 3 3 3 3 3 3 3 2 2 2 1 1 1 1 0 0 1 1 2 2 3 3 3 4 3 3 3 4 3 3 3 3
Wind_Direction
263 269 269 267 263 249 243 252 263 262 243 234 209 177 148 143 135 130 131 131 123 126 124 130 137 146 153 162 163 170 173 181 182 183 179 179 179 179 183 189 197 197 203 212
263 262 267 267 264 260 250 253 259 259 252 245 182 143 139 147 145 141 139 136 130 129 139 146 151 158 157 163 166 169 176 183 176 179 183 185 185 182 184 190 198 196 205 216
267 266 267 259 257 261 255 252 255 258 247 214 184 158 152 149 150 144 147 145 138 134 146 153 158 163 165 161 163 167 171 172 169 175 185 190 195 190 192 194 200 206 213 220
266 269 256 261 263 264 261 259 254 249 233 225 197 140 126 139 148 154 149 141 129 129 142 163 163 160 157 160 161 164 164 165 167 176 187 187 193 195 198 197 202 210 217 217
258 257 257 261 265 267 260 257 262 230 211 206 168 147 144 137 128 130 113 105 112 132 156 158 153 151 159 173 169 171 174 175 180 183 185 190 195 199 201 202 209 218 215 208
249 255 258 264 272 292 281 253 263 242 194 190 204 205 167 133 127 113 104 99 98 125 138 136 137 150 168 173 168 172 173 175 181 187 191 196 194 193 200 208 220 226 221 208
242 251 257 285 301 286 260 260 348 200 182 189 247 69 102 106 105 100 101 99 92 100 104 107 120 134 149 148 159 159 155 163 168 169 184 183 175 180 193 208 215 212 218 206
239 247 251 311 281 285 333 22 50 55 69 82 81 89 91 90 96 103 102 96 94 93 89 97 110 121 125 130 128 121 123 132 134 143 181 163 148 175 199 204 200 197 196 207
247 247 324 12 18 10 349 33 52 64 79 88 99 104 100 96 97 101 105 101 100 95 89 95 101 115 130 108 93 98 109 122 137 152 152 152 161 172 197 203 213 214 204 215
281 254 287 335 314 310 351 11 19 31 60 72 94 100 112 113 118 120 104 108 104 105 106 104 97 101 103 101 110 117 136 149 159 166 166 145 150 179 179 205 191 225 250 240
274 271 286 290 318 335 334 333 342 352 13 54 83 102 104 113 124 122 103 94 94 104 107 104 95 92 97 101 104 122 146 159 172 171 146 126 120 70 115 68 65 37 298 300
267 287 294 300 319 327 327 320 321 346 343 354 41 130 122 106 106 103 97 95 98 109 115 105 93 82 81 87 96 116 139 147 161 164 140 139 130 82 59 107 115 116 149 171
268 271 270 287 296 305 299 295 315 330 334 345 343 105 104 98 105 96 96 102 108 113 115 111 102 90 85 89 91 101 123 146 183 170 159 163 169 171 156 133 112 112 194 196
285 269 263 269 275 280 276 280 279 271 262 236 145 117 114 100 94 95 107 118 116 112 118 118 110 100 90 88 95 106 148 143 192 190 184 198 207 211 200 189 169 141 195 213
276 266 256 258 255 248 246 248 241 228 194 180 162 146 143 130 120 112 108 110 113 113 115 112 107 100 88 98 107 109 123 126 153 221 218 219 231 221 212 206 195 160 147 157
279 258 249 240 237 240 241 232 225 218 212 188 163 155 149 138 135 124 111 110 119 118 114 112 110 108 107 101 99 111 118 126 243 241 214 220 233 218 208 190 152 131 107 85
265 255 243 232 225 227 232 229 218 216 218 185 162 153 147 142 137 132 135 129 115 112 115 121 125 128 133 124 117 131 120 117 269 281 277 27 341 332 353 21 51 70 88 92
252 251 235 222 227 231 220 186 181 185 189 156 141 143 144 145 145 139 135 126 115 109 111 120 128 139 135 129 137 167 122 115 234 9 35 16 2 13 19 61 79 85 100 118
231 230 225 212 209 202 195 179 164 160 153 147 144 142 144 145 140 140 141 139 137 135 135 128 131 139 129 118 153 200 189 178 141 106 87 95 99 13 13 56 73 77 73 79
158 155 186 186 186 175 172 171 162 151 146 140 140 139 140 140 141 147 151 147 144 142 138 135 151 164 173 155 257 244 207 171 140 126 42 67 66 36 33 42 49 54 50 51
147 153 143 139 135 127 134 142 137 141 147 154 153 149 146 148 152 155 155 143 131 128 138 148 164 179 191 248 242 230 203 158 146 137 85 60 49 39 29 28 41 44 42 37
154 146 134 131 120 111 105 108 125 138 154 156 155 148 146 152 157 151 144 131 138 146 172 158 143 118 345 282 226 220 180 95 72 110 106 95 41 13 18 14 15 38 43 32
124 122 122 124 125 125 128 138 148 150 152 152 155 152 153 150 150 145 145 143 146 152 169 124 118 118 6 263 235 215 116 98 289 306 79 71 360 348 334 328 340 4 33 36
91 96 104 119 128 128 136 142 130 128 135 144 147 143 144 142 137 138 126 128 126 139 151 130 143 150 207 252 269 269 334 358 349 355 4 342 342 350 343 351 3 20 30 26
103 107 107 109 125 135 147 146 132 136 143 135 136 141 155 148 143 129 118 127 135 148 151 150 170 183 214 264 289 347 29 24 2 349 350 349 1 13 23 27 24 30 24 23
121 123 120 133 135 143 150 144 142 138 136 129 128 123 113 116 123 123 121 123 127 143 156 146 160 182 210 229 239 23 52 77 65 44 28 25 29 32 31 27 25 27 29 29
136 124 121 127 124 138 139 134 138 138 135 132 128 120 119 118 118 122 122 123 130 143 153 136 137 147 189 149 92 77 65 54 49 48 48 44 38 37 36 36 35 31 27 27